Sign In / Sign Up
 
 
Falling Leaves Regatta. Leg 1. 17/10 - 23/10



Race Date (UTC) # I place II place III place Track
Race3644 2016-10-19 18:25:28 8 Lucona Trapanelle Guga Grael 2
Race3643 2016-10-19 18:24:37 8 paspi moromoro Ziolas
Race3642 2016-10-19 18:23:40 8 ge614 Koninu Rauxa
Race3641 2016-10-19 18:22:44 8 INTONS itaNOrusia goran
Race3640 2016-10-19 18:21:45 8 Tigerloo34 :-/ u suck
Race3639 2016-10-19 18:21:17 8 WeRThWrld POL220 F20
Race3638 2016-10-19 18:20:43 8 Caronte znl 14 Minor
Race3637 2016-10-19 18:20:00 8 POPEYE Brasil Gingio
Race3636 2016-10-19 18:19:23 8 youppi03:50:40 Guga Grael 2 Lucona
Race3635 2016-10-19 18:18:27 8 Harry dew Taylor
Race3634 2016-10-19 18:17:35 8 ge614 baton billellera
Race3633 2016-10-19 18:16:54 8 . JULEPE silviom
Race3632 2016-10-19 18:16:04 8 Kai Kai goran Amato
Race3631 2016-10-19 18:15:22 8 WeRThWrld Masky j24kr
Race3630 2016-10-19 18:14:43 8 sofele Caronte J RACING .
Race3629 2016-10-19 18:14:04 8 Guga Grael 2 Trapanelle ELIOTLUCAS-5
Race3628 2016-10-19 18:13:23 8 Siesta Arnaud Brasil
Race3627 2016-10-19 18:12:32 8 ORBAN DIEMSailing youppi03:50:40
Race3626 2016-10-19 18:12:06 8 REAL 1047 ge614 billellera
Race3625 2016-10-19 18:11:26 8 between the sheets SUAD SPINOUT
Race3624 2016-10-19 18:10:53 8 jorda1 JULEPE Koninu
Race3623 2016-10-19 18:10:19 8 AVM Kai Kai Vento
Race3622 2016-10-19 18:09:35 8 WeRThWrld Ki Iacopo
Race3621 2016-10-19 18:09:05 8 Caronte Minor znl 14
Race3620 2016-10-19 18:08:14 8 Trapanelle Soling HC16rs
Race3619 2016-10-19 18:07:31 8 Pirillina 1 Guga Grael 2 sofele
Race3618 2016-10-19 18:06:46 8 ELIOTLUCAS-5 Amato Mus403
Race3617 2016-10-19 18:06:08 8 billellera Atlantis GER-1013 KataevRUS.
Race3616 2016-10-19 18:05:26 8 BPVIII giulioostia470 youppi03:50:40
Race3615 2016-10-19 18:05:02 8 REAL 1047 Kai Kai F-BREXIT
Race3614 2016-10-19 18:04:01 8 WeRThWrld Dart18 baton
Race3613 2016-10-19 18:03:42 8 Koninu Musashi Ki
Race3612 2016-10-19 18:02:55 8 Caronte znl 14 silviom
Race3611 2016-10-19 18:02:05 8 Korsar HC16rs .
Race3610 2016-10-19 18:01:30 8 Hunt 1st searocker Pirillina 1
Race3609 2016-10-19 18:00:50 8 ALICE andorra Axilla
Race3608 2016-10-19 17:59:51 8 KataevRUS. billellera Amato
Race3607 2016-10-19 17:59:11 8 ELIOTLUCAS-5 jorda1 spearit
Race3606 2016-10-19 17:58:10 8 Honys ITA-24rs:x Atlantis GER-1013
Race3605 2016-10-19 17:57:42 8 baton Koninu JULEPE
Race3604 2016-10-19 17:56:57 8 Caronte silviom Vento
Race3603 2016-10-19 17:56:31 8 . Axilla Tato
Race3602 2016-10-19 17:55:32 8 AccordDigital searocker Alvaro
Race3601 2016-10-19 17:54:42 8 tp52rus J RACING . JJ
Race3600 2016-10-19 17:54:02 8 billellera CAVU - USA ALICE
Race3599 2016-10-19 17:53:03 8 Atila Minor KataevRUS.
Race3598 2016-10-19 17:52:05 8 ELIOTLUCAS-5 ITA-24rs:x Snipe
Race3597 2016-10-19 17:51:23 8 andorra fast Masky
Race3596 2016-10-19 17:50:53 8 Caronte znl 14 Amato
Race3595 2016-10-19 17:49:42 8 REAL 1047 . Benjamin
Race3594 2016-10-19 17:48:43 8 M I N tp52rus searocker
Race3593 2016-10-19 17:48:31 8 lazzarella Michele ALICE
Race3592 2016-10-19 17:48:05 8 6 a 2 Minor Maria
Race3591 2016-10-19 17:47:11 8 Pink Lady tazo Dart18
Race3590 2016-10-19 17:46:20 8 DESABOTA billellera Atila
Race3589 2016-10-19 17:45:49 8 artemisia federico Stella dell'Est
Race3588 2016-10-19 17:45:00 8 PALE andorra star6546
Race3587 2016-10-19 17:44:36 8 Amato team MON AYAKA
Race3586 2016-10-19 17:43:58 8 boqueron . JULEPE
Race3585 2016-10-19 17:42:49 8 tp52rus ELIOTLUCAS-5 Northern lights
Race3584 2016-10-19 17:42:09 8 searocker ALICE Masky
Race3583 2016-10-19 17:41:03 8 tazo sissa21 Michele
Race3582 2016-10-19 17:40:11 8 billellera Koninu WildOatsXI
Race3581 2016-10-19 17:39:00 8 nir ISR New Jersey Snipe Stella dell'Est
Race3580 2016-10-19 17:38:20 8 fast RUS-626 Arnaud
Race3579 2016-10-19 17:37:54 8 POL 77 POL220 boqueron
Race3578 2016-10-19 17:37:12 8 Phil JULEPE ZoharIV
Race3577 2016-10-19 17:36:20 8 Rocinante 1183 valver juliet
Race3576 2016-10-19 17:35:49 8 federico Masky Benjamin
Race3575 2016-10-19 17:35:09 8 King ELIOTLUCAS-5 lazzarella
Race3574 2016-10-19 17:34:33 8 WildOatsXI E Daje kuddukunnu
Race3573 2016-10-19 17:33:22 8 sissa21 Grande Fuga 4921
Race3572 2016-10-19 17:32:39 8 Blue Skies Dream nir ISR New Jersey
Race3571 2016-10-19 17:31:57 8 love Harry RAYO
Race3570 2016-10-19 17:31:28 8 artemisia Phil .
Race3569 2016-10-19 17:30:56 8 Koninu juliet Erotica
Race3568 2016-10-19 17:30:23 2 Benjamin nir ISR New Jersey
Race3567 2016-10-19 17:29:34 8 juveMERDA federico valver
Race3566 2016-10-19 17:28:41 8 Masky Minor PALE
Race3565 2016-10-19 17:27:59 8 billellera sam ZoharIV
Race3564 2016-10-19 17:26:54 8 Luca sissa21 4921
Race3563 2016-10-19 17:26:21 8 POL220 RAYO Blue Skies
Race3562 2016-10-19 17:25:51 8 REAL ELIOTLUCAS-5 kuddukunnu
Race3561 2016-10-19 17:24:51 8 BPVIII .BABSEA. spearit
Race3560 2016-10-19 17:24:13 8 artemisia Radek Pink Panter
Race3559 2016-10-19 17:23:34 8 King JULEPE grospaquet
Race3558 2016-10-19 17:23:07 8 F20 Giorgio Y.C. Tempio Pausania
Race3557 2016-10-19 17:22:17 8 Rocinante 1183 Minor Koninu
Race3556 2016-10-19 17:21:11 8 sissa21 billellera CARONTE
Race3555 2016-10-19 17:20:24 8 RAYO ZoharIV Trapanelle
Race3554 2016-10-19 17:19:39 8 Kforce PALE POL220
Race3553 2016-10-19 17:18:25 8 KnurR spearit Limbo74
Race3552 2016-10-19 17:17:38 8 pirate BUMBA Oreste
Race3551 2016-10-19 17:17:25 8 POL 77 figufo King
Race3550 2016-10-19 17:17:00 8 6 a 2 Koninu cafi
Race3549 2016-10-19 17:16:27 8 BPVIII mr.cello Y.C. Tempio Pausania
Race3548 2016-10-19 17:15:56 8 ELIOTLUCAS-5 INTONS Giorgio
Race3547 2016-10-19 17:15:12 8 jero CARONTE lieselotte
Race3546 2016-10-19 17:14:24 8 RAYO Blue Skies Trapanelle
Race3545 2016-10-19 17:13:39 8 Kforce Equanimity MaruimANTIFA